Temp
-3 -2 -3 -5 -6 -6 -7 -6 -5 -3 -5 -4 -5 -6 -6 -6 -5 -5 -5 -5 -5 -4 -4 -3 -1 1 4 4 5 7 10 11 12 12 12 13 12 11 11 10 10 9 9 9
-4 -3 -9 -9 -6 -6 -4 -6 -5 -5 -5 -5 -5 -6 -6 -6 -6 -5 -5 -5 -5 -4 -4 -3 -2 -0 2 7 8 10 11 12 12 12 12 12 12 11 10 10 9 8 8 8
-5 -3 -4 -6 -9 -9 -6 -6 -6 -6 -6 -5 -6 -6 -6 -6 -5 -5 -5 -5 -5 -5 -4 -3 -3 -1 1 6 10 12 12 12 12 12 12 12 11 11 10 9 8 8 7 7
-6 -4 -7 -7 -10 -9 -10 -8 -10 -7 -6 -7 -7 -6 -6 -5 -5 -6 -5 -5 -5 -5 -4 -4 -3 0 2 5 12 13 12 12 12 12 11 11 11 11 10 9 8 8 7 7
-7 -6 -4 -4 -6 -7 -10 -7 -11 -7 -7 -7 -7 -6 -3 -4 -6 -6 -6 -6 -5 -5 -5 -3 -0 1 3 7 13 13 11 11 11 11 11 12 11 10 9 9 8 8 7 7
-5 -7 -6 -8 -5 -4 -9 -9 -6 -7 -8 -8 -7 -7 -5 -6 -6 -6 -6 -6 -5 -5 -4 -1 -0 2 5 13 12 11 11 11 11 11 11 11 11 10 9 9 8 8 8 7
-6 -6 -5 -5 -5 -5 -6 -7 -7 -8 -8 -8 -8 -7 -7 -6 -6 -6 -6 -6 -5 -5 -4 -2 -0 7 11 11 11 11 10 11 10 10 10 10 10 10 9 9 8 8 7 7
-7 -10 -5 -6 -6 -6 -8 -8 -8 -9 -8 -8 -7 -7 -6 -6 -6 -6 -6 -6 -6 -5 -5 -3 -0 6 9 9 9 9 9 9 9 9 9 9 9 8 8 8 7 7 7 7
-6 -4 -5 -6 -6 -7 -8 -9 -9 -9 -8 -8 -7 -7 -6 -7 -7 -7 -6 -6 -6 -6 -5 -3 -1 1 3 7 8 8 8 7 8 8 8 9 8 7 7 7 7 7 6 6
-6 -4 -5 -6 -7 -7 -9 -9 -8 -8 -8 -8 -7 -7 -7 -7 -7 -7 -6 -7 -6 -6 -5 -3 -2 -1 1 5 8 8 6 6 7 7 7 7 7 7 7 6 6 6 6 5
-8 -7 -7 -6 -6 -9 -9 -9 -8 -8 -8 -8 -8 -8 -7 -7 -7 -7 -7 -7 -7 -6 -5 -4 -3 -1 0 3 5 5 5 5 5 5 5 6 6 6 6 6 7 6 5 5
-7 -7 -8 -8 -9 -9 -10 -9 -9 -9 -8 -8 -9 -9 -8 -8 -7 -7 -7 -7 -7 -7 -6 -5 -4 -3 -1 2 3 4 3 3 4 4 4 4 4 4 5 6 6 6 6 7
-8 -9 -10 -9 -10 -9 -11 -10 -9 -8 -9 -9 -9 -9 -9 -9 -8 -7 -8 -8 -8 -7 -6 -5 -4 -3 -2 1 2 2 2 3 3 4 4 4 3 3 2 4 5 6 5 6
-11 -14 -10 -9 -10 -11 -11 -10 -10 -10 -9 -10 -10 -10 -9 -9 -9 -9 -9 -8 -8 -7 -6 -6 -5 -4 -3 -1 1 2 2 2 3 3 3 4 3 3 3 2 2 3 4 5
-13 -13 -11 -12 -12 -11 -10 -11 -10 -10 -10 -10 -10 -10 -10 -10 -10 -9 -9 -9 -8 -7 -7 -6 -5 -5 -3 -1 -0 1 2 2 2 2 3 3 3 3 2 2 2 2 3 3
-15 -15 -15 -15 -13 -13 -13 -12 -11 -10 -10 -10 -10 -10 -10 -10 -9 -9 -9 -9 -9 -7 -7 -6 -6 -5 -4 -2 -0 0 0 1 2 2 2 2 2 1 1 1 1 1 1 1
-12 -12 -14 -14 -15 -15 -15 -13 -12 -11 -10 -10 -10 -10 -9 -10 -9 -9 -9 -9 -8 -7 -7 -7 -6 -5 -5 -3 -2 -1 -0 1 1 1 1 1 1 1 1 1 1 1 1 1
-13 -13 -13 -14 -16 -15 -13 -11 -11 -10 -10 -10 -10 -9 -10 -10 -10 -10 -9 -9 -8 -7 -7 -7 -6 -6 -5 -4 -3 -2 -1 -1 -0 0 0 0 0 0 0 0 0 -0 -1 -1
-14 -13 -12 -13 -12 -13 -12 -11 -9 -9 -9 -9 -10 -10 -9 -9 -9 -9 -8 -9 -8 -7 -7 -7 -6 -6 -6 -5 -3 -2 -2 -1 -1 -1 -1 -1 -1 -1 -1 -1 -2 -2 -2 -2
-13 -12 -11 -11 -10 -10 -10 -8 -8 -9 -8 -9 -9 -9 -10 -9 -9 -9 -9 -9 -9 -8 -7 -7 -7 -7 -7 -6 -4 -3 -3 -3 -3 -2 -2 -2 -2 -2 -3 -3 -3 -2 -2 -2
-12 -11 -11 -10 -10 -9 -8 -8 -9 -9 -9 -9 -9 -10 -10 -9 -9 -9 -10 -9 -8 -7 -8 -7 -7 -7 -7 -6 -5 -5 -4 -4 -4 -4 -4 -4 -4 -4 -3 -3 -3 -3 -3 -3
-11 -10 -10 -9 -9 -9 -8 -8 -8 -9 -9 -9 -9 -9 -9 -10 -10 -9 -9 -10 -9 -8 -8 -7 -7 -7 -8 -6 -6 -6 -5 -5 -5 -5 -5 -5 -5 -5 -5 -4 -5 -5 -4 -4
-9 -9 -9 -9 -9 -9 -8 -8 -8 -9 -9 -9 -9 -9 -10 -10 -10 -10 -10 -9 -8 -8 -8 -8 -7 -8 -8 -7 -7 -7 -7 -7 -6 -6 -6 -6 -6 -6 -5 -6 -6 -5 -5 -5
-9 -9 -9 -9 -9 -9 -9 -8 -9 -9 -9 -9 -9 -9 -9 -10 -9 -9 -10 -10 -9 -9 -9 -8 -8 -9 -8 -8 -8 -8 -8 -7 -7 -7 -7 -7 -7 -6 -6 -6 -6 -6 -6 -5
-8 -9 -9 -9 -10 -9 -9 -9 -9 -9 -8 -8 -9 -9 -9 -9 -10 -10 -10 -9 -9 -9 -9 -9 -9 -8 -8 -8 -8 -8 -9 -8 -8 -7 -7 -7 -7 -7 -6 -6 -6 -6 -6 -6
-9 -9 -9 -9 -9 -9 -9 -9 -10 -9 -9 -9 -8 -9 -9 -9 -9 -10 -9 -10 -9 -9 -9 -9 -9 -8 -8 -9 -9 -9 -8 -8 -8 -8 -7 -7 -7 -7 -7 -7 -7 -6 -6 -6
-9 -9 -9 -9 -9 -9 -9 -9 -10 -9 -9 -9 -9 -9 -9 -9 -9 -10 -10 -9 -9 -9 -9 -9 -8 -8 -8 -8 -8 -9 -9 -9 -8 -7 -7 -7 -7 -7 -7 -7 -7 -7 -7 -7
Height
882 871 871 877 884 885 888 880 875 835 839 815 809 800 785 769 751 735 721 708 698 687 675 663 653 642 635 637 641 648 657 670 679 677 677 683 695 699 707 717 727 735 746 763
881 865 894 895 881 878 868 868 860 848 838 826 812 799 781 764 750 731 717 703 690 679 669 659 650 641 632 633 643 647 658 666 668 673 677 686 695 703 707 716 725 735 747 754
888 866 868 879 892 892 872 862 858 852 842 823 808 796 776 756 745 734 718 702 688 676 665 655 647 641 635 637 643 650 651 654 661 665 672 678 692 704 710 712 723 734 743 752
897 876 896 879 882 874 879 861 864 853 836 828 815 797 778 762 748 731 714 701 683 670 657 645 638 632 631 625 624 628 638 647 656 666 677 681 696 705 709 714 720 731 736 744
914 898 872 864 873 876 879 850 862 848 835 821 806 788 761 757 745 733 714 700 685 670 658 642 632 625 617 614 624 629 636 645 655 665 672 674 698 704 707 714 720 727 736 745
904 913 896 886 867 856 869 872 847 845 838 825 806 787 763 752 737 721 709 693 682 670 653 639 629 623 622 619 623 633 640 649 660 668 673 690 699 702 707 712 721 728 738 744
907 908 883 875 866 856 871 869 852 850 843 827 820 813 789 767 748 735 714 698 669 667 654 650 631 619 617 624 627 636 644 655 664 674 681 691 697 702 708 714 721 728 736 742
916 932 892 873 866 875 873 861 858 849 841 829 817 801 788 771 757 737 718 689 676 661 652 646 635 625 628 634 642 646 652 662 672 678 684 694 697 701 707 714 722 729 737 745
903 882 870 871 872 871 868 865 855 848 840 829 814 800 787 776 761 746 731 713 691 681 673 654 648 643 637 644 648 652 658 670 675 680 684 690 699 706 712 716 723 732 737 745
897 872 871 870 871 870 868 864 855 845 838 829 815 801 788 775 763 758 745 727 714 695 679 676 666 657 652 651 656 657 667 674 681 680 697 702 704 707 713 721 726 732 739 746
896 880 874 869 868 869 864 859 854 842 839 831 819 805 794 782 768 758 750 736 722 715 700 694 679 669 666 665 665 670 676 680 683 694 697 699 704 713 717 722 726 731 737 744
886 877 879 872 869 868 865 859 854 845 832 830 822 809 794 786 776 764 750 740 729 716 710 700 691 684 677 674 674 679 684 687 692 693 698 704 714 720 724 723 732 736 739 744
878 877 877 870 869 866 865 859 854 847 837 833 823 815 804 790 774 766 761 746 736 728 719 711 702 692 687 685 687 686 689 693 697 701 703 711 717 721 726 734 737 739 745 749
876 877 873 867 866 863 861 855 852 847 840 834 827 818 810 801 789 777 764 757 752 741 725 717 710 706 705 703 700 696 698 701 703 704 707 713 719 725 728 732 738 745 751 754
874 872 868 866 863 858 856 852 848 845 840 831 826 820 811 804 795 788 780 768 756 747 740 731 722 719 713 708 705 705 709 711 712 714 715 719 723 730 735 738 745 747 752 758
870 870 869 869 865 861 856 849 848 843 841 835 828 820 814 808 803 794 784 776 768 761 757 747 744 738 730 723 719 720 721 719 717 721 724 726 730 736 740 742 747 753 756 760
869 868 868 867 864 860 856 852 850 844 840 838 831 823 815 808 802 798 790 783 777 770 767 760 756 748 743 736 732 728 726 725 725 728 731 733 736 740 746 748 752 755 761 766
863 862 862 862 862 858 852 849 847 843 839 837 834 829 823 815 807 799 795 788 781 778 770 764 761 753 747 741 737 736 735 734 736 737 740 741 742 746 750 752 757 760 767 772
861 860 860 859 858 856 852 848 845 842 837 835 833 829 824 819 813 805 797 793 785 777 773 770 765 757 750 748 745 743 742 740 741 743 744 746 749 752 755 758 762 767 770 773
857 856 856 856 855 853 850 845 842 840 836 833 831 829 825 820 816 810 804 796 794 790 782 774 765 760 760 758 755 752 751 749 748 749 750 752 754 755 759 763 768 771 774 779
853 852 852 852 850 849 847 845 842 838 836 832 831 829 826 821 816 810 805 802 797 790 785 779 774 769 766 764 761 758 755 754 754 756 759 760 761 762 766 770 774 777 779 783
850 849 849 848 847 846 845 842 840 838 835 832 830 827 825 821 817 814 810 805 798 793 786 781 780 776 772 768 764 760 759 759 759 763 765 766 768 769 771 775 779 781 784 788
846 846 847 846 845 844 842 843 840 837 835 832 830 827 825 822 819 815 808 804 799 796 792 789 784 780 777 773 772 771 771 771 771 772 772 772 774 775 775 780 782 785 789 793
841 842 842 841 840 839 838 837 838 836 834 832 830 828 826 823 819 819 815 811 807 803 798 794 791 786 782 780 779 779 777 776 776 777 778 777 779 781 784 786 789 792 796 800
839 840 840 840 840 837 835 834 835 834 832 830 829 827 826 825 824 820 817 814 810 807 802 800 795 791 787 787 785 784 784 784 783 783 784 784 785 787 790 793 796 798 803 807
836 837 836 836 835 837 834 832 832 832 830 828 827 826 825 824 823 821 819 816 813 810 806 803 800 796 793 793 793 792 792 790 790 790 790 791 793 795 797 800 804 806 810 814
833 834 833 833 832 833 832 830 831 830 829 827 825 825 823 822 822 821 820 818 816 813 811 807 803 801 799 799 800 800 799 798 798 797 798 799 801 802 805 809 814 816 818 822
Wind_Speed
12 19 16 14 11 3 4 7 7 19 25 28 24 33 31 31 31 27 30 27 23 21 19 16 18 20 11 23 25 26 29 31 31 27 23 26 31 42 48 47 48 49 46 43
12 3 2 4 3 4 6 9 12 17 23 12 29 27 30 31 29 30 31 29 27 25 21 17 16 19 17 22 28 30 35 33 24 27 29 32 36 27 42 43 44 45 45 45
5 8 6 3 5 5 11 12 11 6 14 23 29 29 30 32 25 31 30 29 28 24 20 17 21 19 17 14 31 36 34 28 26 27 28 31 30 32 33 40 42 41 42 43
5 8 5 6 4 8 7 9 3 8 25 23 25 26 29 18 29 30 30 28 26 22 21 30 25 18 13 15 26 29 28 26 27 29 29 33 31 33 30 35 42 42 41 40
3 2 7 3 5 8 5 18 4 19 24 26 28 23 19 27 30 27 30 25 22 33 30 27 23 20 14 8 33 31 25 26 26 28 27 33 25 27 34 34 34 36 39 42
3 3 4 5 10 15 4 5 15 24 22 25 26 20 19 36 35 34 34 38 30 34 31 27 28 19 11 28 27 25 27 26 26 27 24 32 30 28 30 35 33 32 34 38
3 4 7 3 15 10 6 7 23 21 20 21 17 16 26 29 29 38 39 41 50 39 30 29 30 7 21 22 22 24 29 28 27 29 29 27 28 29 29 28 29 29 30 30
2 3 7 3 4 3 5 10 16 20 17 22 22 24 25 26 26 28 30 43 48 40 36 38 30 20 19 22 25 30 32 30 28 30 31 30 28 28 28 31 28 27 28 26
6 5 1 2 4 5 5 12 9 18 21 20 23 25 25 24 25 23 34 39 45 39 35 38 36 25 23 17 28 31 33 29 28 29 28 29 30 29 26 27 27 24 25 24
3 3 4 10 4 3 8 9 14 16 19 20 22 24 25 23 22 18 31 32 39 39 37 32 35 29 27 24 29 32 30 30 31 35 32 31 30 29 29 25 23 24 23 22
6 8 9 1 3 6 12 12 15 21 18 17 19 22 22 21 23 28 31 36 39 34 35 33 34 33 32 21 29 33 29 28 30 29 30 28 25 23 26 25 31 30 28 32
4 3 5 8 6 11 7 14 14 16 19 23 22 19 27 19 31 31 33 36 36 38 35 38 36 35 34 27 26 29 25 25 24 28 28 27 25 22 14 16 21 26 31 35
4 1 6 12 11 6 9 13 19 19 22 13 26 25 26 27 34 37 34 37 37 35 35 38 37 37 40 32 24 26 25 21 22 25 28 26 24 24 23 19 14 16 22 26
5 1 5 3 4 17 16 20 21 18 20 20 21 24 25 26 30 31 34 36 35 33 38 38 38 38 38 31 25 25 20 18 20 21 24 22 22 22 24 21 20 20 13 17
8 11 10 11 15 11 14 16 14 11 19 24 25 23 26 25 27 29 31 34 34 34 36 37 38 40 41 32 32 28 18 17 19 18 20 21 21 20 22 25 22 24 23 21
2 4 4 4 8 8 8 10 10 13 18 21 23 26 27 26 24 28 31 33 30 28 32 34 33 35 34 30 25 22 18 17 18 19 20 21 21 21 21 22 22 20 22 25
1 5 3 4 4 7 6 14 14 14 18 19 23 28 30 28 25 25 30 34 29 26 29 30 30 32 30 28 23 20 19 19 17 19 19 19 21 22 20 22 21 24 21 25
7 5 7 8 7 7 11 17 20 20 16 23 25 24 24 22 21 27 28 30 28 25 32 32 32 29 28 29 23 19 18 18 17 18 18 20 22 22 23 24 23 26 26 23
11 12 13 13 15 15 17 17 19 21 20 22 23 22 22 23 24 27 30 24 27 27 33 32 28 28 27 25 20 17 16 16 17 18 18 18 22 24 24 25 26 24 26 25
10 11 12 15 15 14 16 16 16 18 18 20 22 21 19 24 25 23 24 21 25 25 27 27 29 29 24 20 16 15 14 16 17 16 16 19 20 22 22 24 25 27 26 26
13 11 12 13 15 15 13 13 13 16 17 16 18 18 20 21 23 22 19 17 28 29 25 24 23 24 21 16 15 15 15 15 15 16 18 18 19 22 23 24 25 25 26 26
11 10 13 13 13 15 14 12 12 13 14 14 16 19 21 19 21 22 15 18 26 24 26 26 23 19 16 14 15 16 15 14 15 14 15 18 20 22 23 23 24 25 26 27
9 10 12 12 12 14 13 15 13 11 13 12 14 16 18 18 17 17 17 26 24 22 23 21 20 17 15 16 15 15 15 15 16 16 17 18 19 21 23 23 25 26 26 25
10 11 13 12 10 11 12 14 12 12 12 12 11 11 13 18 19 13 16 17 16 17 17 19 18 17 16 17 17 16 16 17 18 18 18 20 22 23 24 25 26 26 25 26
10 12 12 11 11 14 12 11 12 13 11 11 11 10 10 10 10 16 15 14 13 13 15 15 16 17 19 19 18 19 19 16 17 20 20 22 23 25 25 25 26 27 27 27
11 12 12 12 13 14 12 10 12 14 12 12 11 9 9 9 9 10 11 9 9 11 13 15 18 19 20 20 19 19 17 18 20 21 23 24 25 26 26 25 25 28 29 29
11 11 11 12 12 12 12 10 11 11 9 9 10 8 8 8 8 8 7 7 7 8 9 12 15 17 19 19 20 20 21 22 19 22 23 24 25 26 28 29 29 30 31 30
Wind_Direction
257 270 275 263 270 181 200 243 273 303 302 301 321 320 318 313 315 317 327 326 327 325 319 315 310 304 274 196 191 200 181 190 201 183 172 153 164 162 162 164 165 167 168 175
298 279 172 271 177 307 292 277 269 294 288 310 312 314 318 317 320 328 328 327 329 326 323 322 318 309 309 183 185 183 184 187 189 170 158 157 160 172 161 162 164 164 169 173
273 314 325 7 209 257 291 289 295 313 309 323 320 323 321 318 325 328 326 327 326 323 321 318 309 300 284 206 184 176 169 165 161 154 153 151 159 170 167 159 163 169 171 173
289 333 358 237 233 233 249 295 180 324 323 323 316 314 306 313 327 327 326 328 327 325 326 322 306 309 286 241 173 155 147 149 153 151 150 150 165 171 164 162 165 171 172 174
318 261 285 44 330 319 2 312 190 338 330 324 322 316 318 335 329 328 326 327 327 326 320 312 317 301 281 217 155 140 139 146 155 157 157 146 173 175 167 165 165 168 174 176
335 335 280 239 317 314 115 291 340 342 329 326 330 342 328 330 331 331 330 332 335 337 337 346 337 314 250 142 129 132 139 139 145 148 147 164 172 165 166 165 168 171 176 181
288 270 288 314 316 307 47 281 333 324 321 322 327 314 307 320 327 330 330 335 339 348 349 347 336 286 129 131 121 126 126 138 143 153 154 158 159 163 159 156 158 164 168 171
319 335 310 1 339 59 246 307 315 312 320 319 318 317 325 326 332 334 335 339 347 350 350 355 356 62 96 106 119 120 124 128 136 139 141 148 145 143 145 145 145 147 149 153
186 239 271 306 240 271 298 306 310 312 318 320 319 327 329 332 335 337 341 342 345 353 349 0 13 25 52 78 111 113 114 118 124 133 134 145 145 141 137 141 142 144 145 145
353 275 283 301 298 278 308 302 311 312 316 320 324 327 330 334 338 345 345 344 344 350 356 357 9 23 45 90 121 120 116 119 130 125 137 144 143 143 142 141 137 138 137 140
260 291 310 242 308 321 316 320 322 318 322 324 326 328 332 335 338 342 348 350 349 349 356 355 6 24 42 83 121 119 119 123 122 129 128 123 129 149 151 153 162 156 155 156
241 218 210 273 301 319 315 321 324 318 328 335 334 328 332 336 338 344 346 351 354 350 358 1 9 20 31 62 97 113 104 109 119 118 115 117 116 108 124 146 166 171 172 174
244 153 236 272 291 298 314 316 320 325 318 327 330 333 335 336 339 344 350 350 352 353 357 0 10 16 27 50 72 89 92 106 113 124 126 128 119 114 104 104 128 168 169 172
243 38 293 223 279 318 309 311 320 319 323 327 332 336 340 341 343 347 347 346 347 353 1 4 7 15 21 41 62 77 83 100 114 120 126 130 129 122 123 118 116 118 150 165
250 220 244 294 303 304 325 326 329 337 335 334 343 340 346 344 343 341 345 348 352 2 4 3 8 7 16 37 51 63 73 92 103 111 118 121 125 125 123 119 119 122 129 138
270 260 285 262 296 310 323 333 331 332 337 332 339 341 341 340 342 344 349 356 356 357 0 3 7 7 16 31 47 66 66 87 98 106 116 120 121 117 113 112 112 117 122 127
33 326 328 305 293 310 301 309 305 317 328 332 334 341 347 344 346 353 350 357 357 358 4 6 1 11 20 28 46 54 65 72 92 108 114 121 125 119 113 114 116 112 115 134
236 246 257 256 276 294 309 317 322 329 335 336 339 347 353 349 341 340 346 351 357 7 8 6 5 10 23 23 37 51 71 82 94 105 116 118 118 122 119 111 110 113 117 121
239 256 274 279 282 287 294 308 326 328 344 347 344 342 351 357 352 350 353 355 2 359 359 3 5 18 24 19 30 48 63 81 92 98 102 107 112 118 115 116 117 117 121 128
249 256 273 284 292 290 298 316 325 328 344 349 347 346 345 354 357 355 356 348 359 354 360 4 10 14 20 24 36 51 65 81 89 94 104 111 110 110 114 121 124 129 133 137
255 268 275 281 288 299 303 314 320 325 336 347 348 344 341 351 357 360 353 355 355 2 6 11 17 17 18 19 42 59 70 80 88 98 108 111 116 118 123 129 133 136 135 136
256 264 275 282 286 296 310 314 314 317 327 341 344 348 348 348 351 354 2 354 351 0 9 16 17 21 25 36 48 56 65 76 90 102 110 118 122 119 121 130 129 130 134 135
264 269 275 278 284 295 306 309 313 312 315 329 338 344 345 342 348 352 344 358 356 356 17 17 19 26 40 53 59 68 79 88 97 106 113 120 123 125 127 128 129 131 132 132
268 269 269 277 280 283 294 311 312 311 310 312 326 336 342 343 347 348 347 350 1 0 19 21 31 40 56 64 68 72 84 91 97 103 104 115 118 122 124 127 126 127 129 132
271 273 274 276 277 277 291 305 303 308 314 309 314 327 340 341 336 338 344 352 6 10 38 32 42 59 66 67 71 81 80 86 103 110 112 114 117 120 123 126 129 131 131 131
277 271 274 276 277 286 289 295 294 302 308 307 315 320 335 341 340 338 349 360 16 32 44 53 52 61 67 69 74 76 82 94 102 106 114 116 120 122 123 124 126 129 130 130
276 275 276 281 283 282 282 286 285 296 308 303 303 309 327 342 349 349 355 7 24 39 46 60 66 66 69 70 73 78 86 89 95 106 110 114 117 120 123 125 127 127 126 126